Location: Montreal
(45.5087°N, 73.5540°W)
Time: 00:36:02
(UTC-04:00)

Vanguard 2 Rocket - All Passes

Search period start: 08 June 2026 00:00
Search period end: 18 June 2026 00:00
Orbit: 553 x 3286 km, 32.9° (Epoch: 7 June)

Date Brightness Start Highest point End Pass type
(mag) Time Alt. Az. Time Alt. Az. Time Alt. Az.
8 Jun - 05:24:29 10° SSW 05:26:25 13° SSE 05:28:29 10° SE daylight
8 Jun - 07:34:21 10° SW 07:37:53 21° S 07:42:35 10° SE daylight
8 Jun - 09:46:13 10° SW 09:50:07 16° SSW 09:55:13 10° SSE daylight
9 Jun - 06:30:24 10° SW 06:33:19 18° S 06:36:50 10° SE daylight
9 Jun - 08:41:39 10° SW 08:45:10 17° S 08:49:45 10° SSE daylight
10 Jun - 05:26:36 10° SSW 05:28:50 14° S 05:31:15 10° SE daylight
10 Jun - 07:37:21 10° SW 07:40:25 17° S 07:44:15 10° SE daylight
10 Jun - 09:51:11 10° SSW 09:52:38 11° SSW 09:54:14 10° S daylight
11 Jun - 04:23:07 10° S 04:24:21 11° SSE 04:25:34 10° SSE visible
11 Jun - 06:33:09 10° SW 06:35:49 16° S 06:38:54 10° SE daylight
11 Jun - 08:45:34 10° SW 08:47:42 12° SSW 08:50:09 10° S daylight
12 Jun - 05:28:58 10° SSW 05:31:18 15° S 05:33:46 10° SE daylight
12 Jun - 07:40:45 10° SW 07:42:56 13° S 07:45:27 10° SSE daylight
13 Jun - 04:24:44 10° SSW 04:26:48 13° S 04:28:48 10° SE visible
13 Jun - 06:36:10 10° SW 06:38:19 14° S 06:40:42 10° SSE daylight
14 Jun - 03:20:27 10° SSW 03:22:15 12° S 03:23:55 10° SSE visible
14 Jun - 05:31:35 10° SW 05:33:47 14° S 05:36:03 10° SSE daylight
15 Jun - 02:16:20 10° S 02:17:36 11° SSE 02:18:47 10° SSE visible
15 Jun - 04:26:50 10° SW 04:29:17 15° S 04:31:35 10° SE visible
15 Jun - 06:39:56 10° SSW 06:40:48 11° SSW 06:41:42 10° S daylight
16 Jun - 03:21:55 10° SSW 03:24:45 15° S 03:27:14 10° SE visible
16 Jun - 05:34:26 10° SW 05:36:15 13° S 05:38:04 10° SSE daylight
17 Jun - 02:16:48 10° SSW 02:20:07 15° S 02:22:52 10° SE visible
17 Jun - 04:29:11 10° SW 04:31:45 15° S 04:34:08 10° SSE visible
